When you browse on this site, cookies collect data to enhance your experience and personalize the content and advertising you see.
Visit our Privacy Policy to learn more. By continuing to use the site, you agree to this use of cookies and data.
  • In Switzerland
  • List of Countries
  • For 7 days
  • Water Temperature
  • Satellite Maps
  • Weather Map
  • Weather Widgets
  • user-avatar
    Login

    Hourly Weather Nakuru

    Today, 21 March, Thursday

    Time Temperature Precipitation Wind Pressure Humidity
    00:00 +16°C° 0 mm 1 mps 604 mmHg 71%
    01:00 +16°C° 0 mm 1 mps 604 mmHg 75%
    02:00 +15°C° 0 mm 1 mps 603 mmHg 79%
    03:00 +15°C° 0 mm 1 mps 603 mmHg 82%
    04:00 +14°C° 0 mm 1 mps 603 mmHg 84%
    05:00 +14°C° 0 mm 1 mps 603 mmHg 86%
    06:00 +16°C° 0 mm 1 mps 604 mmHg 70%
    07:00 +20°C° 0 mm 1 mps 605 mmHg 54%
    08:00 +23°C° 0 mm 1 mps 607 mmHg 38%
    09:00 +25°C° 0 mm 2 mps 607 mmHg 32%
    10:00 +27°C° 0 mm 2 mps 608 mmHg 25%
    11:00 +29°C° 0 mm 3 mps 608 mmHg 18%
    12:00 +30°C° 0 mm 3 mps 608 mmHg 17%
    13:00 +32°C° 0 mm 4 mps 607 mmHg 17%
    14:00 +32°C° 0 mm 4 mps 607 mmHg 16%
    15:00 +30°C° 0 mm 4 mps 607 mmHg 18%
    16:00 +29°C° 0 mm 4 mps 606 mmHg 20%
    17:00 +28°C° 0 mm 4 mps 606 mmHg 22%
    18:00 +26°C° 0 mm 4 mps 605 mmHg 30%
    19:00 +22°C° 0 mm 3 mps 605 mmHg 38%
    20:00 +20°C° 0 mm 2 mps 605 mmHg 45%
    21:00 +19°C° 0 mm 2 mps 605 mmHg 53%
    22:00 +19°C° 0 mm 1 mps 605 mmHg 61%
    23:00 +18°C° 0 mm 1 mps 605 mmHg 68%

    Tomorrow, 22 March, Friday

    Time Temperature Precipitation Wind Pressure Humidity
    00:00 +16°C° 0 mm 1 mps 604 mmHg 73%
    01:00 +16°C° 0 mm 1 mps 604 mmHg 77%
    02:00 +15°C° 0 mm 1 mps 603 mmHg 82%
    03:00 +15°C° 0 mm 1 mps 603 mmHg 82%
    04:00 +14°C° 0 mm 1 mps 603 mmHg 83%
    05:00 +14°C° 0 mm 1 mps 603 mmHg 84%
    06:00 +18°C° 0 mm 1 mps 604 mmHg 68%
    07:00 +21°C° 0 mm 1 mps 606 mmHg 52%
    08:00 +23°C° 0 mm 1 mps 607 mmHg 36%
    09:00 +25°C° 0 mm 2 mps 608 mmHg 31%
    10:00 +28°C° 0 mm 2 mps 608 mmHg 25%
    11:00 +30°C° 0 mm 3 mps 609 mmHg 19%
    12:00 +30°C° 0 mm 3 mps 608 mmHg 19%
    13:00 +32°C° 0 mm 4 mps 607 mmHg 18%
    14:00 +32°C° 0 mm 4 mps 607 mmHg 18%
    15:00 +30°C° 0 mm 4 mps 606 mmHg 21%
    16:00 +28°C° 0 mm 4 mps 606 mmHg 25%
    17:00 +27°C° 0 mm 4 mps 605 mmHg 28%
    18:00 +25°C° 0 mm 3 mps 605 mmHg 36%
    19:00 +23°C° 0 mm 2 mps 606 mmHg 43%
    20:00 +20°C° 0 mm 2 mps 606 mmHg 51%
    21:00 +20°C° 0 mm 1 mps 606 mmHg 57%
    22:00 +19°C° 0 mm 1 mps 606 mmHg 64%
    23:00 +16°C° 0 mm 0 mps 606 mmHg 70%

    Day after tomorrow, 23 March, Saturday

    Time Temperature Precipitation Wind Pressure Humidity
    00:00 +15°C° 0 mm 0 mps 605 mmHg 74%
    01:00 +15°C° 0 mm 0 mps 604 mmHg 77%
    02:00 +15°C° 0 mm 1 mps 603 mmHg 81%
    03:00 +15°C° 0 mm 1 mps 603 mmHg 82%
    04:00 +15°C° 0 mm 1 mps 603 mmHg 84%
    05:00 +14°C° 0 mm 1 mps 603 mmHg 85%
    06:00 +18°C° 0 mm 1 mps 605 mmHg 72%
    07:00 +21°C° 0 mm 1 mps 606 mmHg 58%
    08:00 +23°C° 0 mm 1 mps 607 mmHg 45%
    09:00 +26°C° 0 mm 2 mps 608 mmHg 37%
    10:00 +28°C° 0 mm 2 mps 608 mmHg 30%
    11:00 +30°C° 0 mm 3 mps 609 mmHg 23%
    12:00 +30°C° 0 mm 3 mps 608 mmHg 21%
    13:00 +31°C° 0 mm 3 mps 607 mmHg 20%
    14:00 +31°C° 0 mm 3 mps 606 mmHg 19%
    15:00 +30°C° 0 mm 3 mps 606 mmHg 21%
    16:00 +29°C° 0 mm 3 mps 606 mmHg 24%
    17:00 +27°C° 0 mm 3 mps 605 mmHg 27%
    18:00 +25°C° 0 mm 2 mps 605 mmHg 35%
    19:00 +23°C° 0 mm 2 mps 605 mmHg 44%
    20:00 +20°C° 0 mm 1 mps 605 mmHg 53%
    21:00 +19°C° 0 mm 1 mps 605 mmHg 60%
    22:00 +19°C° 0 mm 1 mps 605 mmHg 67%
    23:00 +16°C° 0 mm 0 mps 605 mmHg 74%

    24 March, Sunday

    Time Temperature Precipitation Wind Pressure Humidity
    00:00 +15°C° 0 mm 0 mps 604 mmHg 78%
    01:00 +15°C° 0 mm 0 mps 603 mmHg 82%
    02:00 +15°C° 0 mm 1 mps 603 mmHg 86%
    03:00 +15°C° 0 mm 1 mps 603 mmHg 86%
    04:00 +15°C° 0 mm 1 mps 603 mmHg 86%
    05:00 +14°C° 0 mm 1 mps 603 mmHg 87%
    06:00 +18°C° 0 mm 1 mps 604 mmHg 74%
    07:00 +21°C° 0 mm 1 mps 606 mmHg 61%
    08:00 +23°C° 0 mm 1 mps 607 mmHg 48%
    09:00 +25°C° 0 mm 2 mps 607 mmHg 38%
    10:00 +27°C° 0 mm 3 mps 607 mmHg 29%
    11:00 +30°C° 0 mm 3 mps 607 mmHg 20%
    12:00 +30°C° 0 mm 4 mps 607 mmHg 18%
    13:00 +32°C° 0 mm 4 mps 606 mmHg 16%
    14:00 +33°C° 0 mm 4 mps 606 mmHg 14%
    15:00 +32°C° 0 mm 4 mps 605 mmHg 16%
    16:00 +29°C° 0 mm 4 mps 605 mmHg 19%
    17:00 +28°C° 0 mm 4 mps 605 mmHg 21%
    18:00 +26°C° 0 mm 3 mps 605 mmHg 30%
    19:00 +23°C° 0 mm 2 mps 604 mmHg 39%
    20:00 +20°C° 0 mm 1 mps 604 mmHg 48%
    21:00 +19°C° 0 mm 1 mps 604 mmHg 56%
    22:00 +18°C° 0 mm 1 mps 604 mmHg 64%
    23:00 +15°C° 0 mm 0 mps 604 mmHg 73%

    25 March, Monday

    Time Temperature Precipitation Wind Pressure Humidity
    00:00 +16°C° 0 mm 1 mps 603 mmHg 77%
    01:00 +15°C° 0 mm 1 mps 602 mmHg 81%
    02:00 +15°C° 0 mm 1 mps 602 mmHg 86%
    03:00 +15°C° 0 mm 1 mps 602 mmHg 86%
    04:00 +14°C° 0 mm 1 mps 602 mmHg 86%
    05:00 +14°C° 0 mm 1 mps 603 mmHg 86%
    06:00 +18°C° 0 mm 1 mps 604 mmHg 70%
    07:00 +21°C° 0 mm 1 mps 606 mmHg 54%
    08:00 +23°C° 0 mm 1 mps 607 mmHg 39%
    09:00 +26°C° 0 mm 2 mps 607 mmHg 32%
    10:00 +28°C° 0 mm 3 mps 607 mmHg 25%
    11:00 +30°C° 0 mm 4 mps 608 mmHg 18%
    12:00 +30°C° 0 mm 4 mps 607 mmHg 18%
    13:00 +32°C° 0 mm 4 mps 606 mmHg 18%
    14:00 +32°C° 0 mm 4 mps 606 mmHg 18%
    15:00 +30°C° 0 mm 4 mps 606 mmHg 21%
    16:00 +29°C° 0 mm 4 mps 606 mmHg 23%
    17:00 +28°C° 0 mm 4 mps 605 mmHg 26%
    18:00 +26°C° 0 mm 3 mps 605 mmHg 32%
    19:00 +23°C° 0 mm 2 mps 605 mmHg 39%
    20:00 +21°C° 0 mm 1 mps 605 mmHg 46%
    21:00 +20°C° 0 mm 1 mps 605 mmHg 52%
    22:00 +19°C° 0 mm 1 mps 605 mmHg 58%
    23:00 +16°C° 0 mm 0 mps 604 mmHg 65%

    26 March, Tuesday

    Time Temperature Precipitation Wind Pressure Humidity
    00:00 +16°C° 0 mm 0 mps 604 mmHg 69%
    01:00 +16°C° 0 mm 1 mps 603 mmHg 74%
    02:00 +15°C° 0 mm 1 mps 603 mmHg 78%
    03:00 +15°C° 0 mm 1 mps 603 mmHg 80%
    04:00 +15°C° 0 mm 1 mps 603 mmHg 81%
    05:00 +14°C° 0 mm 1 mps 604 mmHg 82%
    06:00 +18°C° 0 mm 1 mps 605 mmHg 68%
    07:00 +21°C° 0 mm 1 mps 606 mmHg 54%
    08:00 +24°C° 0 mm 1 mps 608 mmHg 40%
    09:00 +26°C° 0 mm 2 mps 608 mmHg 34%
    10:00 +28°C° 0 mm 3 mps 608 mmHg 28%
    11:00 +30°C° 0 mm 4 mps 608 mmHg 22%
    12:00 +30°C° 0 mm 4 mps 608 mmHg 21%
    13:00 +30°C° 0 mm 5 mps 607 mmHg 21%
    14:00 +32°C° 0 mm 5 mps 607 mmHg 21%
    15:00 +29°C° 0 mm 4 mps 607 mmHg 25%
    16:00 +28°C° 0 mm 4 mps 606 mmHg 29%
    17:00 +26°C° 0 mm 3 mps 606 mmHg 34%
    18:00 +24°C° 0.3 mm 3 mps 606 mmHg 42%
    19:00 +21°C° 0.3 mm 2 mps 606 mmHg 51%
    20:00 +20°C° 0.3 mm 1 mps 606 mmHg 59%
    21:00 +20°C° 0 mm 1 mps 606 mmHg 63%
    22:00 +19°C° 0 mm 1 mps 606 mmHg 67%
    23:00 +16°C° 0 mm 0 mps 606 mmHg 72%
    Show more